Погода в Туркменбаши

Погода в Туркменбаши : погода сейчас, прогноз погоды и архив. Всё, что Вы хотите узнать о погоде в Туркменбаши!

Поиск расширенной информации на нашем сайте:

Другие новости

Новости СМИ2

Главная страница сайта

Новости сайта

02.10.2013

Напоминаем, что на нашем новом сайте вы можете получить высокодетализированные прогнозы погоды по пунктам России, СНГ и мира (включающие важные для авиации метеовеличины, такие как направление и скорость ветра, видимость, явления погоды, количество и форма облачности, нижняя и верхняя граница облачности), а также ознакомиться с разнообразными материалами по авиационной метеорологии и подборкой полезных ссылок на эту тему.

Сайт Метеоцентр.Азия посвящён разработке технологий оптимизации авиаметеорологического обслуживания, включая проектирование и перспективное создание нескольких автоматизированных авиаметеорологических систем:
- система выпуска высокодетальных прогностических карт явлений погоды для нижнего воздушного пространства по России и ближнему зарубежью;
- система верификации прогнозов TAF (выпускаемых синоптиками официальных АМСГ РФ и ближнего зарубежья) и AUTOTAF (выпускаемых сайтом Метеоцентр.Азия) - выявление ошибок, онлайн-сопоставление с фактической погодой METAR, автоматическое внесение коррективов в прогнозы при резком отклонении фактической погоды от прогноза, подсчёт оправдываемости прогнозов по элементам и в целом;
- система обработки, анализа и отображения авиаметеорологической информации для применения провайдерами метеорологической информации.


Погода в Туркменбаши - сегодня

Время (UTC), дата Ветер
(°,м/с) 
Видим.   Явления Облачность Т
(°С)
Тd
(°С)
f(%) Тe
(°С)
Pmin
(гПа)
dP
(гПа)
Po
(мм)
O2
(г/м3)
Тmin Tmax R s Состояние
почвы
15 16.01.17 130 (ЮВ) 4000 м    3/3 200 м 
[St]
+1.2 -1.1 85 +1  1025.4  1.4  761  305    +5.1       
18 16.01.17 060 (СВ) 4000 м    6/6 270 м 
[St]
-0.4 -1.6 92 -1  1026.7  1.3  762  308    +5.1       
21 16.01.17 тихо ()   4000 м  дымка  3/3 200 м 
[St]
-1.5 -2.3 94 -2  1026.8  762  309           
00 17.01.17 190 (Ю) 4000 м    8/0 средняя 
[Ac trans]
+0.5 -0.6 92 1027.3  0.6  763  307           
03 17.01.17 тихо ()   4000 м  дымка  8/4 100 м средняя 
[Frnb|Ac trans]
+0.1 -1 92 1027.4  0.1  763  307           
06 17.01.17 120 (ЮВ) 10 км    10/10 870 м 
[Sc]
+1.9 -0 87 +1  1028.5  1.1  763  305  -1.5         
09 17.01.17 120 (ЮВ) 10 км  {дождь}  10/10 900 м 
[Sc]
+1.8 +0.5 91 +1  1028.1  -0.4  763  305           
12 17.01.17 120 (ЮВ) 20000 м  {дождь}  10/10 750 м 
[Sc]
+3.1 +0.2 81 +3  1027.1  -0.9  762  304           
15 17.01.17 110 (В) 4000 м    9/9 630 м 
[Sc]
+3 -0.2 79 +2  1027.1  762  304    +3.3  0.0     
18 17.01.17 тихо ()   4000 м    10/5 1000 м средняя 
[Sc|Ac As]
+3.5 -1.2 71 +4  1027.2  0.1  763  304    +3.3  0.0     
21 17.01.17 130 (ЮВ) 4000 м    9/5 1000 м средняя 
[Sc|Ac trans]
+3.7 -1.9 67 +5  1027  -0.2  762  303           
00 18.01.17 тихо ()   4000 м    9/5 1000 м средняя 
[Sc|Ac trans]
+4.2 -3 59 +4  1027  762  303           
03 18.01.17 тихо ()   4000 м    10/8 630 м средняя 
[Sc|Ac trans]
+3.3 +0.1 80 +3  1027.5  0.5  763  304           
06 18.01.17 180 (Ю) 20000 м    10/8 660 м средняя 
[Sc|Ac As]
+4 +0.3 77 +3  1028.4  0.9  763  303  +2.8         
09 18.01.17 120 (ЮВ) 20000 м  слаб. дождь  10/10 660 м 
[Sc]
+5.2 +1.4 76 +5  1027.9  -0.5  763  302           
12 18.01.17 100 (В) 20000 м  {дождь}  10/10 1020 м 
[Sc]
+5.7 -1.3 61 +5  1027.1  -0.7  763  301           
15 18.01.17 090 (В) 4000 м    10/10 1050 м 
[Sc]
+4.6 -0.5 69 +5  1027.6  0.4  763  302    +5.8  0.0     
18 18.01.17 тихо ()   4000 м    10/10 930 м 
[Sc]
+5.2 -0.4 67 +5  1028.1  0.5  763  302    +5.8  0.0     
21 18.01.17 130 (ЮВ) 4000 м    10/10 1080 м 
[Sc]
+5 -0.6 67 +4  1027.5  -0.6  763  302           
00 19.01.17 тихо ()   4000 м    10/10 1000 м 
[Sc]
+4.6 -0.5 69 +5  1027  -0.5  762  302           
03 19.01.17 150 (ЮВ) 4000 м    10/10 900 м 
[Sc]
+4.3 +0.1 74 +4  1026.6  -0.4  762  302           
06 19.01.17 тихо ()   20000 м  {дождь}  10/8 1020 м средняя 
[Sc|Ac As]
+5.2 +1.1 75 +5  1027.7  1.1  763  302  +4.3         
09 19.01.17 120 (ЮВ) 20000 м    10/10 1300 м 
[Sc]
+5.7 -0.7 63 +5  1026.9  -0.7  762  301           
12 19.01.17 тихо ()   20000 м    10/3 1000 м средняя 
[Sc|Ac As]
+6.6 -1.4 57 +7  1026.4  -0.5  762  300           
15 19.01.17 330 (СЗ) 4000 м    10/10 960 м 
[Sc]
+5 +2.5 84 +3  1027.3  0.8  763  301    +7.3  0.0     
Время (UTC), дата Ветер
(°,м/с) 
Видим.   Явления Облачность Т
(°С)
Тd
(°С)
f(%) Тe
(°С)
Pmin
(гПа)
dP
(гПа)
Po
(мм)
O2
(г/м3)
Тmin Tmax R s Состояние
почвы

Для получения пояснительной информации подведите курсор к названию столбца.

ПОГОДА в Туркменбаши - архив

Всё, что Вы хотите узнать о погоде в Туркменбаши - удобно и подробно!

Выберите нужную дату (начиная с 1 января 2015* года) и нажмите кнопку "Найти".
Будут отображены архивные сводки погоды по пункту Туркменбаши, начиная с указанной даты.


Отображать данные в формате CSV (для использования в таблицах Excel)


Внимание! Наш архив погоды предназначен исключительно для личного некоммерческого использования в познавательных целях. Если Вам необходимы официальные справки о состоянии погоды (для производственных, юридических, коммерческих и т.п. целей), обращайтесь в органы Росгидромета.

*Примечание: данная дата относится к архиву по метеостанциям СССР (Россия, СНГ, Балтия).
Архив по метеостанциям Зарубежной Европы и Азии (кроме Китая) хранится 10 дней, по другим регионам земного шара (Китай, Африка, Америка, Австралия, Океания) - 1 день.

Туркменбаши - район местоположения метеостанции


Название, широта, долгота, высота метеостанции:
Туркменбаши (Красноводск) 40.1°ш. 53°д. -13 м над ур. моря [Туркменистан]

Дополнительная информация

В oтличие oт бoльшинства пoгoдных сайтoв мы публикуем пoдрoбную метеoинфoрмацию в детальнoм прoфессиoнальнoм фoрмате.

Характеристики температуры и влажнoсти вoздуха измеряются на высoте 2 м в тени вдали oт зданий и деревьев.
Скoрoсть ветра измеряется на высoте 10 м (на урoвне рoста челoвека скoрoсть ветра ниже в 1.5-2 раза). Если метеoстанция нахoдится в гoрoде или в лесу, тo скoрoсть ветра занижена на 2-4 м/с пo сравнению с oткрытым местoм. Скoрoсть ветра над акватoриями крупных рек и oзёр, а также на вершинах хoлмoв на 2-5 м/с выше, чем в oбычных услoвиях.
Атмoсфернoе давление в разных тoчках местнoсти мoжет значительнo oтличаться oт давления на метеoстанции, в зависимoсти oт услoвий рельефа (при пoдъёме на 10 м давление пoнижается примернo на 1 мм рт.ст.).